This is the latest recevied weather packets stored in our database for station/object SV9TNF-1. If no packets are shown the sender has not sent any weather packets the latest 10 day(s).
| Time | Temp. | Humidity | Pressure | Rain* | Wind** | Luminosity | Snow |
|---|---|---|---|---|---|---|---|
| 1778034618 | 17.22° C | 34% | 1003.7 hPa | 0 mm | 10.28 m/s, 328° | - | - |
| 1778034318 | 17.78° C | 34% | 1003.7 hPa | 0 mm | 6.26 m/s, 268° | - | - |
| 1778034018 | 17.78° C | 33% | 1003.7 hPa | 0 mm | 8.49 m/s, 300° | - | - |
| 1778033717 | 17.78° C | 33% | 1003.7 hPa | 0 mm | 7.15 m/s, 329° | - | - |
| 1778033418 | 17.78° C | 34% | 1004.1 hPa | 0 mm | 8.49 m/s, 320° | - | - |
| 1778033117 | 17.78° C | 34% | 1004.1 hPa | 0 mm | 6.26 m/s, 328° | - | - |
| 1778032818 | 17.78° C | 34% | 1004.1 hPa | 0 mm | 8.05 m/s, 313° | - | - |
| 1778032517 | 17.22° C | 34% | 1004.1 hPa | 0 mm | 7.15 m/s, 304° | - | - |
| 1778032217 | 16.67° C | 36% | 1004.1 hPa | 0 mm | 9.83 m/s, 327° | - | - |
| 1778031917 | 17.22° C | 36% | 1004.1 hPa | 0 mm | 10.28 m/s, 316° | - | - |
| 1778031617 | 17.22° C | 35% | 1004.1 hPa | 0 mm | 8.94 m/s, 328° | - | - |
| 1778031316 | 16.67° C | 37% | 1004.1 hPa | 0 mm | 6.71 m/s, 322° | - | - |
| 1778031017 | 16.11° C | 40% | 1004.1 hPa | 0 mm | 7.15 m/s, 267° | - | - |
| 1778030717 | 16.67° C | 39% | 1004.1 hPa | 0 mm | 7.15 m/s, 326° | - | - |
| 1778030417 | 16.11° C | 42% | 1004.1 hPa | 0 mm | 10.28 m/s, 306° | - | - |
| 1778030116 | 16.67° C | 40% | 1004.1 hPa | 0 mm | 10.73 m/s, 321° | - | - |
| 1778029816 | 16.11° C | 40% | 1004.1 hPa | 0 mm | 12.07 m/s, 328° | - | - |
| 1778029516 | 16.11° C | 42% | 1004.1 hPa | 0 mm | 8.49 m/s, 318° | - | - |
| 1778029216 | 16.67° C | 39% | 1004.1 hPa | 0 mm | 8.05 m/s, 318° | - | - |
| 1778028916 | 16.67° C | 40% | 1004.1 hPa | 0 mm | 6.71 m/s, 310° | - | - |
| 1778028616 | 16.67° C | 39% | 1004.1 hPa | 0 mm | 7.15 m/s, 315° | - | - |
| 1778028316 | 16.67° C | 40% | 1004.1 hPa | 0 mm | 10.28 m/s, 316° | - | - |
| 1778028016 | 16.67° C | 44% | 1004.1 hPa | 0 mm | 10.28 m/s, 345° | - | - |
| 1778027715 | 16.67° C | 43% | 1004.1 hPa | 0 mm | 13.41 m/s, 332° | - | - |
| 1778027416 | 16.67° C | 41% | 1004.1 hPa | 0 mm | 14.31 m/s, 341° | - | - |
* Rain latest hour (hover to see other rain measurements)
** Current wind speed in m/s (hover to see current wind gust speed)